Regional Weather Roundup
Issued by NWS Sioux Falls, SD

Home | Current Version | Previous Version | Text Only | Print | Product List | Glossary On
Versions: 1 2 3 4 5 6 7 8 9 10 11 12 13 14 15 16 17 18 19 20 21 22 23 24 25 26 27 28 29 30 31 32 33 34 35 36 37 38 39 40 41 42 43 44 45 46 47 48 49 50
000
ASUS43 KFSD 221610
RWRFSD

WEATHER ROUNDUP FOR SE SOUTH DAKOTA/SW MINNESOTA/NW IOWA
NATIONAL WEATHER SERVICE SIOUX FALLS SD
1000 AM CST WED FEB 22 2017

NOTE: "FAIR" INDICATES FEW OR NO CLOUDS BELOW 12,000 FEET WITH NO
SIGNIFICANT WEATHER AND OR OBSTRUCTIONS TO VISIBILITY.


SDZ038>040-050-052>070-221700-
SOUTHEAST SOUTH DAKOTA

CITY           SKY/WX    TMP DP  RH WIND       PRES   REMARKS
BROOKINGS      MOSUNNY   48  40  73 VRB3      29.59R
CHAMBERLAIN    SUNNY     53  41  64 W15       29.68S
HURON          SUNNY     46  41  82 NW8       29.63R
MADISON        FAIR      50  46  87 W7        29.61S
MITCHELL       SUNNY     56  40  55 W15       29.64F
SIOUX FALLS    CLOUDY    52  40  63 W3        29.63R
WINNER         FAIR      56  38  50 NW25G33   29.70R
YANKTON        MOSUNNY   54  37  54 SW7       29.65S
$$

MNZ071-072-080-081-089-090-097-098-221700-
SOUTHWEST MINNESOTA

CITY           SKY/WX    TMP DP  RH WIND       PRES   REMARKS
FAIRMONT       SUNNY     47  40  76 NW8       29.60R
JACKSON        MOSUNNY   50  37  62 W15       29.60F
LUVERNE        CLOUDY    41  36  81 S3        29.62S
MARSHALL       CLOUDY    44  42  93 N9        29.61R
MONTEVIDEO     CLOUDY    39  39 100 CALM      29.60F
PIPESTONE      PTSUNNY   46  37  71 CALM      29.61R
REDWOOD FALLS  CLOUDY    44  40  85 NW7       29.59F
TRACY          CLOUDY    48  42  79 NW17G24   29.62R
WINDOM         CLOUDY    46  37  71 W9        29.60F
WORTHINGTON    PTSUNNY   48  39  71 SW8       29.61F
$$

IAZ001>003-012>014-020>022-031-032-NEZ013-014-SDZ071-221700-
NORTHWEST IOWA

CITY           SKY/WX    TMP DP  RH WIND       PRES   REMARKS
CHEROKEE       SUNNY     51  37  60 SW3       29.62F
DENISON        SUNNY     54  37  54 W9G16     29.62R
ESTHERVILLE    MOSUNNY   51  41  68 W12       29.59F
LE MARS        SUNNY     55  39  54 NW12      29.64F
ORANGE CITY    SUNNY     54  43  66 NW9       29.62F
SHELDON        SUNNY     54  45  71 W8        29.61F
SIOUX CITY     SUNNY     55  37  50 NW12      29.65S
SPENCER        SUNNY     47  38  71 W6        29.61F
STORM LAKE     SUNNY     52  39  62 W17       29.62S
$$

ABBREVIATIONS USED IN REMARKS
   TC - TEMPERATURE IN CELSIUS
  WCI - WIND CHILL INDEX
   HX - HEAT INDEX
  VSB - VISIBILITY




USA.gov is the U.S. government's official web portal to all federal, state and local government web resources and services.